This is the latest recevied weather packets stored in our database for station/object W4ZHA. If no packets are shown the sender has not sent any weather packets the latest 10 day(s).
| Time | Temp. | Humidity | Pressure | Rain* | Wind** | Luminosity | Snow |
|---|---|---|---|---|---|---|---|
| 1787428084 | 32.78° C | 45% | 1015.1 hPa | 0 mm | - | 452 W/m² | - |
| 1787427779 | 33.89° C | 47% | 1015.1 hPa | 0 mm | - | 455 W/m² | - |
| 1787427474 | 33.89° C | 46% | 1015.5 hPa | 0 mm | - | 457 W/m² | - |
| 1787427171 | 33.89° C | 47% | 1015.5 hPa | 0 mm | - | 457 W/m² | - |
| 1787426865 | 33.89° C | 46% | 1015.5 hPa | 0 mm | - | 461 W/m² | - |
| 1787426561 | 32.78° C | 45% | 1015.5 hPa | 0 mm | - | 468 W/m² | - |
| 1787426258 | 33.33° C | 47% | 1015.5 hPa | 0 mm | - | 474 W/m² | - |
| 1787425954 | 33.33° C | 47% | 1015.5 hPa | 0 mm | - | 469 W/m² | - |
| 1787425650 | 32.78° C | 45% | 1015.5 hPa | 0 mm | - | 465 W/m² | - |
| 1787425346 | 33.33° C | 47% | 1015.5 hPa | 0 mm | - | 391 W/m² | - |
| 1787425045 | 32.78° C | 45% | 1015.5 hPa | 0 mm | - | 470 W/m² | - |
| 1787424744 | 33.89° C | 46% | 1015.5 hPa | 0 mm | - | 466 W/m² | - |
| 1787424440 | 33.33° C | 47% | 1015.5 hPa | 0 mm | - | 471 W/m² | - |
| 1787424135 | 32.78° C | 45% | 1015.5 hPa | 0 mm | - | 198 W/m² | - |
| 1787423831 | 31.67° C | 45% | 1015.8 hPa | 0 mm | - | 473 W/m² | - |
| 1787423528 | 32.22° C | 45% | 1015.8 hPa | 0 mm | - | 465 W/m² | - |
| 1787423223 | 32.78° C | 45% | 1015.8 hPa | 0 mm | - | 478 W/m² | - |
| 1787422919 | 32.78° C | 46% | 1015.5 hPa | 0 mm | - | 504 W/m² | - |
| 1787422614 | 32.22° C | 45% | 1015.8 hPa | 0 mm | - | 482 W/m² | - |
| 1787422310 | 32.78° C | 52% | 1016.1 hPa | 0 mm | - | 485 W/m² | - |
| 1787422006 | 31.11° C | 54% | 1015.8 hPa | 0 mm | - | 482 W/m² | - |
| 1787421703 | 31.11° C | 55% | 1016.1 hPa | 0 mm | - | 502 W/m² | - |
| 1787421397 | 31.67° C | 55% | 1016.1 hPa | 0 mm | - | 511 W/m² | - |
| 1787421093 | 31.67° C | 54% | 1016.5 hPa | 0 mm | - | 498 W/m² | - |
| 1787420788 | 30.56° C | 57% | 1016.5 hPa | 0 mm | - | 192 W/m² | - |
* Rain latest hour (hover to see other rain measurements)
** Current wind speed in m/s (hover to see current wind gust speed)